Powrót do katalogu

THORAD AGENA D DEB

AktywnyLEO
NORAD 4968·DEBRIS·🇺🇸 United States

Wystrzelony Apr 8, 1970 z Vandenberg Space Force Base

Loading…

Następne Przeloty

TLE

Source: Space-Track
1  4968U 70025GN  26225.03746009  .00000089  00000-0  17689-3 0  9998
2  4968 100.1797 237.9050 0018758 240.2346 185.3811 13.62750090792154

Śledź THORAD AGENA D DEB w czasie rzeczywistym z AllMySat

Download on the App Store